BREEZE-M R/B, 42750

Orbit data source: Space-Track

BREEZE-M R/B, 42750 is space debris in HEO originally from a launch on Thu, 08 Jun 2017 UTC launched from the Tyuratam Missile And Space Complex (TTMTR). Debris objects in space refer to the collection of defunct objects orbiting the Earth. Examples of debris include non-operational satellites, rocket bodies, and fragments generated from explosions, collisions, or faulty payload assembly.

Loading next visibility...
Identifier
42750, 2017-032B
Orbit
HEO
Country
Flag of CISCIS
Related business
Manufacturer
Khrunichev
Mission
Spacecraft
Bus & Motor
BRIZ, Unknown motor
Mass
~1,600 kg wet, 1,600 kg dry
Launch date (UTC)
2017-06-08 (8 years ago)
Launch vehicle
Unknown
Launch site
Tyuratam Missile And Space Complex (TTMTR)
Object type
Payload
Rocket body
Debris
Shape & HBR
Cyl, 2.0 m
Radar Cross Section
14.451 m², Large (>1 m²)

Expand to show TLE details & history
Last TLE update: 23 hours ago

TLE from 23 hours ago
0 BREEZE-M R/B
1 42750U 17032B   25260.33254009 -.00000156  00000-0  00000-0 0  9995
2 42750  30.9017 275.3698 6642846 115.9567 324.6601  2.26359953 68493
Epoch: 2025-09-17T07:58Z
TLE epoch observation values (Epoch: 2025-09-17T07:58:51.463Z)
Latitude
-0.00004°
Longitude
159.19533°
Altitude
12,881.389 km
Speed
5.012 km/s
True Right ascension
18h 21m 40s
True Declination
0° 00' 00"
Sunlit
Object was in daylight at epoch
Visualization orbit readout
Latitude
Unknown
Longitude
Unknown
Altitude
Unknown
Speed
Unknown
Apparent Right ascension
Unknown
Apparent Declination
Unknown
Sunlit
N/A
Visualization observer readout
Local Sidereal Time
23:54:55
Azimuth
Unknown
Elevation
Unknown
Doppler factor
Unknown
Orbital elements
Apogee altitude
34,404.573 km
Perigee altitude
1,848.451 km
Semi-major axis
24,504.649 km
Eccentricity
0.66428
Inclination
30.9017°
RAAN
275.3698°
Arg. of periapsis
115.9567°
True anomaly
243.99806°
Mean anomaly
324.6601°
Eccentric anomaly
288.58397°
Mean motion
0.56581 °/min
Orbital period
636.26 mins
BSTAR
0
Loading maneuver chart data...
Computing Atmospheric mass density...
Loading historical data...
Loading historical data...
Loading historical data...
Loading historical data...
Loading historical data...
Loading historical data...
Loading historical data...
Other satellites on launch #32 in the year 2017 (2017-06-08 UTC)

Documentation

Showing up to 5 results
|